Location: Sternwarte ZA, Rosenfeld-Brittheim
(48.2889°N, 8.6789°E)
Time: 21:59:00
(UTC+01:00)

ISS - Pass Details

Date: 12 November 2019
Orbit: 412 x 421 km, 51.6° (Epoch: 15 November)

Event Time Altitude Azimuth Distance (km) Brightness Sun altitude
Exits shadow 05:01:28 19° 152° (SSE) 1,070 -1.5 -24.3°
Drops below altitude 10° 05:02:38 10° 143° (SE) 1,498 -0.5 -24.1°
Sets 05:04:48 0° 135° (SE) 2,358 0.7 -23.7°
